Content
SEND FEEDBACK

Daily
Averages
Monthly
Summary
Canada

MONTREAL, QUEBEC


Home > North America > Canada > Quebec
Elevation: 118 feet     Latitude: 45 28N     Longitude: 073 45W

WEATHER
 
SELECT A DAY
Number of Records: 197,889;   Date Range: 1/1/95 - 7/10/14
 
SHARE

PRINT THIS DATA

[ ← Previous Day ]
WEATHER ALMANAC - JANUARY 2, 2013
[ Next Day → ]
[ °C ]   °F
Weather ElementAverageHighLow
Temperature3.3 °F6.8 °F (12:33 am)-7.6 °F (11:00 pm)
Dewpoint-4.8 °F1.4 °F (4:00 am)-16.6 °F (9:00 pm)
Humidity66.9 %85 % (8:00 am)51 % (3:00 pm)
Wind Speed6.8 mph11.5 mph (2:00 pm)
Weather ElementAverage
Visibility11.8 mi
Wind DirectionWSW (257.7 °)

Weather ElementTotal
Precipitation---
Heating Degree Days65.4 (Base 65)
Averaged from 31 records on January 2, 2013
WEATHER CONDITIONS BREAKOUT
WIND DIRECTION BREAKOUT
WEATHER BY HOUR - JANUARY 2, 2013
[ °C ]   °F
Local TimeTemperatureDewpointHumidityBarometerVisibilityWind DirectionWind SpeedGust SpeedPrecipitationEventsConditions
12:33 AM6.8 °F0.0 °F15.0 miSW (230°)5.8 mphMostly Cloudy
1:00 AM6.8 °F-0.4 °F72 %29.94 in15.0 miWSW (240°)6.9 mphMostly Cloudy
1:50 AM6.8 °F0.0 °F15.0 miWSW (250°)6.9 mphSnowLight Snow Showers
2:00 AM6.8 °F-0.4 °F72 %29.95 in15.0 miWest (260°)8.1 mphSnowLight Snow Showers
3:00 AM5.0 °F-0.4 °F78 %29.94 in12.0 miWNW (300°)5.8 mphSnowLight Snow
4:00 AM6.8 °F1.4 °F79 %29.91 in6.0 miNorth (360°)3.5 mphSnowLight Snow
5:00 AM6.8 °F1.4 °F79 %29.91 in4.0 miCalmSnowLight Snow
6:00 AM6.8 °F1.4 °F79 %29.92 in4.0 miNNW (330°)2.3 mphSnowLight Snow
7:00 AM5.0 °F0.0 °F72 %29.94 in5.0 miNNW (330°)4.6 mphSnowLight Snow
7:00 AM5.0 °F-0.4 °F78 %29.94 in5.0 miNorth (360°)5.8 mphSnowLight Snow
8:00 AM3.2 °F-0.4 °F85 %29.97 in15.0 miNNW (340°)4.6 mphMostly Cloudy
9:00 AM5.0 °F-0.4 °F78 %30.01 in15.0 miNNW (330°)5.8 mphMostly Cloudy
10:00 AM5.0 °F-2.2 °F72 %30.06 in15.0 miNorth (10°)5.8 mphScattered Clouds
11:00 AM5.0 °F-4.0 °F66 %30.09 in15.0 miNNE (30°)5.8 mphMostly Cloudy
11:22 AM5.0 °F0.0 °F15.0 miNE (40°)8.1 mphSnowLight Snow Showers
12:00 PM5.0 °F-2.2 °F72 %30.09 in3.0 miNorth (10°)4.6 mphSnowLight Snow Showers
12:22 PM5.0 °F0.0 °F1.8 miNNW (340°)8.1 mphSnowLight Snow
12:36 PM6.8 °F0.0 °F10.0 miNNW (340°)5.8 mphSnowLight Snow
1:00 PM6.0 °F-3.0 °F53 %30.11 in7.0 miNNW (340°)9.2 mphSnowLight Snow
1:00 PM5.0 °F-2.2 °F72 %30.11 in8.0 miNorth (350°)10.4 mphSnowLight Snow
1:38 PM5.0 °F0.0 °F15.0 miNW (320°)9.2 mphMostly Cloudy
2:00 PM5.0 °F-9.4 °F52 %30.12 in15.0 miNNW (340°)11.5 mphMostly Cloudy
3:00 PM3.2 °F-11.2 °F51 %30.16 in15.0 miNW (320°)9.2 mphPartly Cloudy
4:00 PM1.4 °F-13.0 °F51 %30.20 in15.0 miWNW (290°)11.5 mphPartly Cloudy
5:00 PM-0.4 °F-13.0 °F55 %30.23 in15.0 miWest (280°)10.4 mphPartly Cloudy
6:00 PM-0.4 °F-14.8 °F51 %30.25 in15.0 miWest (270°)9.2 mphPartly Cloudy
7:00 PM-2.2 °F-14.8 °F55 %30.26 in15.0 miWNW (300°)5.8 mphClear
8:00 PM-4.0 °F-14.8 °F60 %30.27 in15.0 miWNW (290°)10.4 mphClear
9:00 PM-4.0 °F-16.6 °F55 %30.28 in15.0 miWest (270°)6.9 mphClear
10:00 PM-5.8 °F-14.8 °F65 %30.28 in15.0 miWSW (250°)3.5 mphClear
11:00 PM-7.6 °F-14.8 °F71 %30.30 in15.0 miWest (270°)5.8 mphClear
Hourly data recorded from CYUL, located miles away from Montreal, Quebec







STORIES FROM OUR PARTNERS